Tracking 30102 objects as of 12-Dec-2024
HD Live streaming from Space Station
objects crossing your sky now

STARLINK-30122

Track STARLINK-30122 now!
10-day predictions
STARLINK-30122 is classified as:


NORAD ID: 56688
Int'l Code: 2023-067A
Perigee: 565.5 km
Apogee: 566.9 km
Inclination: 43.0 °
Period: 95.8 minutes
Semi major axis: 6937 km
RCS: Unknown
Launch date: May 19, 2023
Source: United States (US)
Launch site: AIR FORCE EASTERN TEST RANGE (AFETR)
Your satellite tracking list
Your tracking list is empty




NASA's NSSDC Master Catalog

Two Line Element Set (TLE):
1 56688U 23067A   24346.90926163  .00000451  00000-0  48470-4 0  9993
2 56688  43.0006 215.2687 0001035 266.4294  93.6430 15.02537321 87617
Source of the keplerian elements: AFSPC